Time,TemperatureF,DewpointF,PressureIn,WindDirection,WindDirectionDegrees,WindSpeedMPH,WindSpeedGustMPH,Humidity,HourlyPrecipIn,Conditions,Clouds,dailyrainin,SoftwareType,DateUTC
2013-03-06 00:01:00,35.0,23.7,29.95,SE,135,1.0,3.0,63,0.00,,,-99.99,WeatherLink 5.7,2013-03-06 05:01:00,
2013-03-06 00:11:00,34.8,23.9,29.95,SE,135,1.0,2.0,64,0.00,,,-99.99,WeatherLink 5.7,2013-03-06 05:11:00,
2013-03-06 00:21:00,34.9,23.9,29.95,SE,135,1.0,2.0,64,0.00,,,-99.99,WeatherLink 5.7,2013-03-06 05:21:00,
2013-03-06 00:31:00,35.0,24.0,29.95,SE,135,1.0,2.0,64,0.00,,,-99.99,WeatherLink 5.7,2013-03-06 05:31:00,
2013-03-06 00:41:00,35.0,24.0,29.93,SE,135,1.0,2.0,64,0.00,,,-99.99,WeatherLink 5.7,2013-03-06 05:41:00,
2013-03-06 00:51:00,34.8,24.2,29.94,SE,135,0.0,1.0,65,0.00,,,-99.99,WeatherLink 5.7,2013-03-06 05:51:00,
2013-03-06 01:01:00,34.6,24.0,29.94,SE,135,1.0,2.0,65,0.00,,,-99.99,WeatherLink 5.7,2013-03-06 06:01:00,
2013-03-06 01:11:00,34.6,24.0,29.94,SE,135,1.0,2.0,65,0.00,,,-99.99,WeatherLink 5.7,2013-03-06 06:11:00,
2013-03-06 01:21:00,34.5,24.3,29.93,SE,135,1.0,2.0,66,0.00,,,-99.99,WeatherLink 5.7,2013-03-06 06:21:00,
2013-03-06 01:31:00,34.5,24.3,29.93,SE,135,1.0,3.0,66,0.00,,,-99.99,WeatherLink 5.7,2013-03-06 06:31:00,
2013-03-06 01:41:00,34.7,24.5,29.93,SE,135,2.0,3.0,66,0.00,,,-99.99,WeatherLink 5.7,2013-03-06 06:41:00,
2013-03-06 01:51:00,34.9,25.0,29.93,SE,135,2.0,3.0,67,0.00,,,-99.99,WeatherLink 5.7,2013-03-06 06:51:00,
2013-03-06 02:01:00,35.1,25.6,29.91,SE,135,2.0,5.0,68,0.00,,,-99.99,WeatherLink 5.7,2013-03-06 07:01:00,
2013-03-06 02:11:00,35.2,25.7,29.91,SE,135,1.0,3.0,68,0.00,,,-99.99,WeatherLink 5.7,2013-03-06 07:11:00,
2013-03-06 02:20:00,35.0,25.5,29.90,ESE,112,2.0,4.0,68,0.00,,,-99.99,WeatherLink 5.7,2013-03-06 07:20:00,
2013-03-06 02:31:00,35.1,25.9,29.90,SE,135,2.0,3.0,69,0.00,,,-99.99,WeatherLink 5.7,2013-03-06 07:31:00,
2013-03-06 02:41:00,35.1,26.3,29.89,ESE,112,2.0,4.0,70,0.00,,,-99.99,WeatherLink 5.7,2013-03-06 07:41:00,
2013-03-06 02:50:00,35.2,26.7,29.89,SE,135,2.0,4.0,71,0.00,,,-99.99,WeatherLink 5.7,2013-03-06 07:50:00,
2013-03-06 03:01:00,35.4,27.3,29.88,ESE,112,2.0,5.0,72,0.00,,,-99.99,WeatherLink 5.7,2013-03-06 08:01:00,
2013-03-06 03:11:00,35.6,27.5,29.88,ESE,112,3.0,5.0,72,0.00,,,-99.99,WeatherLink 5.7,2013-03-06 08:11:00,
2013-03-06 03:21:00,35.7,27.2,29.87,East,90,2.0,5.0,71,0.00,,,-99.99,WeatherLink 5.7,2013-03-06 08:21:00,
2013-03-06 03:31:00,35.8,27.3,29.87,East,90,3.0,6.0,71,0.00,,,-99.99,WeatherLink 5.7,2013-03-06 08:31:00,
2013-03-06 03:41:00,35.7,27.6,29.86,East,90,3.0,6.0,72,0.00,,,-99.99,WeatherLink 5.7,2013-03-06 08:41:00,
2013-03-06 03:50:00,35.8,27.7,29.86,East,90,4.0,9.0,72,0.00,,,-99.99,WeatherLink 5.7,2013-03-06 08:50:00,
2013-03-06 04:01:00,35.9,27.7,29.88,East,90,5.0,9.0,72,0.00,,,-99.99,WeatherLink 5.7,2013-03-06 09:01:00,
2013-03-06 04:11:00,36.0,27.8,29.87,ESE,112,4.0,7.0,72,0.00,,,-99.99,WeatherLink 5.7,2013-03-06 09:11:00,
2013-03-06 04:21:00,35.9,28.1,29.87,East,90,3.0,6.0,73,0.00,,,-99.99,WeatherLink 5.7,2013-03-06 09:21:00,
2013-03-06 04:30:00,35.8,28.0,29.86,East,90,4.0,7.0,73,0.00,,,-99.99,WeatherLink 5.7,2013-03-06 09:30:00,
2013-03-06 04:41:00,35.8,28.0,29.87,East,90,4.0,8.0,73,0.00,,,-99.99,WeatherLink 5.7,2013-03-06 09:41:00,
2013-03-06 04:51:00,35.8,28.0,29.86,ESE,112,4.0,10.0,73,0.00,,,-99.99,WeatherLink 5.7,2013-03-06 09:51:00,
2013-03-06 05:00:00,35.8,28.0,29.86,East,90,5.0,8.0,73,0.00,,,-99.99,WeatherLink 5.7,2013-03-06 10:00:00,
2013-03-06 05:10:00,35.8,28.0,29.86,East,90,5.0,8.0,73,0.00,,,-99.99,WeatherLink 5.7,2013-03-06 10:10:00,
2013-03-06 05:21:00,35.7,28.6,29.86,East,90,5.0,9.0,75,0.00,,,-99.99,WeatherLink 5.7,2013-03-06 10:21:00,
2013-03-06 05:30:00,35.8,28.6,29.86,East,90,6.0,11.0,75,0.00,,,-99.99,WeatherLink 5.7,2013-03-06 10:30:00,
2013-03-06 05:40:00,35.8,28.6,29.85,East,90,5.0,9.0,75,0.00,,,-99.99,WeatherLink 5.7,2013-03-06 10:40:00,
2013-03-06 05:50:00,35.9,28.7,29.86,East,90,6.0,13.0,75,0.00,,,-99.99,WeatherLink 5.7,2013-03-06 10:50:00,
2013-03-06 06:01:00,36.0,28.8,29.86,East,90,6.0,13.0,75,0.00,,,-99.99,WeatherLink 5.7,2013-03-06 11:01:00,
2013-03-06 06:10:00,36.0,28.8,29.86,East,90,6.0,10.0,75,0.00,,,-99.99,WeatherLink 5.7,2013-03-06 11:10:00,
2013-03-06 06:20:00,36.0,28.5,29.86,East,90,5.0,10.0,74,0.00,,,-99.99,WeatherLink 5.7,2013-03-06 11:20:00,
2013-03-06 06:30:00,36.0,28.5,29.86,East,90,5.0,10.0,74,0.00,,,-99.99,WeatherLink 5.7,2013-03-06 11:30:00,
2013-03-06 06:41:00,36.0,28.5,29.85,East,90,5.0,9.0,74,0.00,,,-99.99,WeatherLink 5.7,2013-03-06 11:41:00,
2013-03-06 06:50:00,36.1,28.6,29.85,East,90,5.0,8.0,74,0.00,,,-99.99,WeatherLink 5.7,2013-03-06 11:50:00,
2013-03-06 07:00:00,36.1,28.9,29.84,East,90,6.0,10.0,75,0.00,,,-99.99,WeatherLink 5.7,2013-03-06 12:00:00,
2013-03-06 07:11:00,36.1,29.3,29.85,East,90,5.0,11.0,76,0.00,,,-99.99,WeatherLink 5.7,2013-03-06 12:11:00,
2013-03-06 07:20:00,36.1,29.3,29.85,East,90,6.0,11.0,76,0.00,,,-99.99,WeatherLink 5.7,2013-03-06 12:20:00,
2013-03-06 07:30:00,36.2,29.0,29.85,East,90,6.0,10.0,75,0.00,,,-99.99,WeatherLink 5.7,2013-03-06 12:30:00,
2013-03-06 07:40:00,36.4,29.2,29.86,East,90,5.0,11.0,75,0.00,,,-99.99,WeatherLink 5.7,2013-03-06 12:40:00,
2013-03-06 07:50:00,36.5,29.3,29.86,East,90,4.0,6.0,75,0.00,,,-99.99,WeatherLink 5.7,2013-03-06 12:50:00,
2013-03-06 08:00:00,36.7,29.5,29.86,East,90,4.0,8.0,75,0.00,,,-99.99,WeatherLink 5.7,2013-03-06 13:00:00,
2013-03-06 08:10:00,36.8,29.3,29.87,East,90,4.0,9.0,74,0.00,,,-99.99,WeatherLink 5.7,2013-03-06 13:10:00,
2013-03-06 08:20:00,36.9,29.4,29.86,East,90,5.0,8.0,74,0.00,,,-99.99,WeatherLink 5.7,2013-03-06 13:20:00,
2013-03-06 08:30:00,37.0,29.5,29.87,East,90,4.0,8.0,74,0.00,,,-99.99,WeatherLink 5.7,2013-03-06 13:30:00,
2013-03-06 08:40:00,36.9,29.7,29.88,East,90,5.0,10.0,75,0.00,,,-99.99,WeatherLink 5.7,2013-03-06 13:40:00,
2013-03-06 08:50:00,36.6,30.1,29.87,ENE,67,5.0,9.0,77,0.00,,,-99.99,WeatherLink 5.7,2013-03-06 13:50:00,
2013-03-06 09:00:00,36.5,29.7,29.87,ENE,67,5.0,12.0,76,0.00,,,-99.99,WeatherLink 5.7,2013-03-06 14:00:00,
2013-03-06 09:11:00,36.7,29.5,29.87,East,90,5.0,10.0,75,0.00,,,-99.99,WeatherLink 5.7,2013-03-06 14:11:00,
2013-03-06 09:21:00,37.0,29.5,29.86,East,90,5.0,11.0,74,0.00,,,-99.99,WeatherLink 5.7,2013-03-06 14:21:00,
2013-03-06 09:31:00,37.2,29.3,29.87,East,90,5.0,10.0,73,0.00,,,-99.99,WeatherLink 5.7,2013-03-06 14:31:00,
2013-03-06 09:41:00,37.3,29.1,29.86,ENE,67,5.0,10.0,72,0.00,,,-99.99,WeatherLink 5.7,2013-03-06 14:41:00,
2013-03-06 09:51:00,37.5,29.3,29.86,ENE,67,5.0,9.0,72,0.00,,,-99.99,WeatherLink 5.7,2013-03-06 14:51:00,
2013-03-06 10:01:00,37.7,29.1,29.85,East,90,6.0,13.0,71,0.00,,,-99.99,WeatherLink 5.7,2013-03-06 15:01:00,
2013-03-06 10:11:00,37.8,29.6,29.85,East,90,6.0,10.0,72,0.00,,,-99.99,WeatherLink 5.7,2013-03-06 15:11:00,
2013-03-06 10:21:00,37.9,29.7,29.85,East,90,5.0,9.0,72,0.00,,,-99.99,WeatherLink 5.7,2013-03-06 15:21:00,
2013-03-06 10:31:00,38.0,29.8,29.85,ENE,67,6.0,10.0,72,0.00,,,-99.99,WeatherLink 5.7,2013-03-06 15:31:00,
2013-03-06 10:41:00,37.8,29.9,29.86,East,90,5.0,10.0,73,0.00,,,-99.99,WeatherLink 5.7,2013-03-06 15:41:00,
2013-03-06 10:51:00,37.9,30.0,29.85,East,90,7.0,13.0,73,0.00,,,-99.99,WeatherLink 5.7,2013-03-06 15:51:00,
2013-03-06 11:01:00,38.2,30.6,29.84,ENE,67,5.0,12.0,74,0.00,,,-99.99,WeatherLink 5.7,2013-03-06 16:01:00,
2013-03-06 11:11:00,38.3,30.4,29.86,East,90,6.0,12.0,73,0.00,,,-99.99,WeatherLink 5.7,2013-03-06 16:11:00,
2013-03-06 11:21:00,38.6,30.4,29.85,ENE,67,6.0,12.0,72,0.00,,,-99.99,WeatherLink 5.7,2013-03-06 16:21:00,
2013-03-06 11:31:00,39.0,30.4,29.85,East,90,7.0,16.0,71,0.00,,,-99.99,WeatherLink 5.7,2013-03-06 16:31:00,
2013-03-06 11:41:00,39.1,29.8,29.85,East,90,7.0,17.0,69,0.00,,,-99.99,WeatherLink 5.7,2013-03-06 16:41:00,
2013-03-06 11:51:00,39.3,30.0,29.85,ENE,67,6.0,15.0,69,0.00,,,-99.99,WeatherLink 5.7,2013-03-06 16:51:00,
2013-03-06 12:01:00,39.3,30.0,29.84,East,90,5.0,11.0,69,0.00,,,-99.99,WeatherLink 5.7,2013-03-06 17:01:00,
2013-03-06 12:11:00,39.5,30.5,29.84,East,90,6.0,14.0,70,0.00,,,-99.99,WeatherLink 5.7,2013-03-06 17:11:00,
2013-03-06 12:21:00,39.9,30.2,29.84,East,90,8.0,16.0,68,0.00,,,-99.99,WeatherLink 5.7,2013-03-06 17:21:00,
2013-03-06 12:31:00,40.0,29.9,29.85,ESE,112,6.0,13.0,67,0.00,,,-99.99,WeatherLink 5.7,2013-03-06 17:31:00,
2013-03-06 12:41:00,40.3,29.5,29.85,East,90,8.0,16.0,65,0.00,,,-99.99,WeatherLink 5.7,2013-03-06 17:41:00,
2013-03-06 12:51:00,41.3,29.6,29.84,East,90,7.0,14.0,63,0.00,,,-99.99,WeatherLink 5.7,2013-03-06 17:51:00,
2013-03-06 13:01:00,41.8,30.1,29.84,East,90,4.0,8.0,63,0.00,,,-99.99,WeatherLink 5.7,2013-03-06 18:01:00,
2013-03-06 13:11:00,41.3,31.2,29.84,East,90,3.0,9.0,67,0.00,,,-99.99,WeatherLink 5.7,2013-03-06 18:11:00,
2013-03-06 13:21:00,41.0,31.2,29.85,ENE,67,4.0,10.0,68,0.00,,,-99.99,WeatherLink 5.7,2013-03-06 18:21:00,
2013-03-06 13:31:00,40.5,32.2,29.84,ENE,67,3.0,7.0,72,0.00,,,-99.99,WeatherLink 5.7,2013-03-06 18:31:00,
2013-03-06 13:41:00,39.5,32.2,29.85,ENE,67,4.0,10.0,75,0.00,,,-99.99,WeatherLink 5.7,2013-03-06 18:41:00,
2013-03-06 13:51:00,38.9,32.6,29.84,ENE,67,3.0,6.0,78,0.00,,,-99.99,WeatherLink 5.7,2013-03-06 18:51:00,
2013-03-06 14:01:00,38.5,32.9,29.84,East,90,3.0,6.0,80,0.01,,,-99.99,WeatherLink 5.7,2013-03-06 19:01:00,
2013-03-06 14:11:00,37.7,32.7,29.84,East,90,4.0,7.0,82,0.01,,,-99.99,WeatherLink 5.7,2013-03-06 19:11:00,
2013-03-06 14:21:00,37.8,32.8,29.84,ENE,67,3.0,8.0,82,0.02,,,-99.99,WeatherLink 5.7,2013-03-06 19:21:00,
2013-03-06 14:31:00,37.9,32.9,29.85,ENE,67,3.0,7.0,82,0.02,,,-99.99,WeatherLink 5.7,2013-03-06 19:31:00,
2013-03-06 14:41:00,37.8,32.8,29.85,East,90,4.0,9.0,82,0.02,,,-99.99,WeatherLink 5.7,2013-03-06 19:41:00,
2013-03-06 14:51:00,37.9,32.6,29.85,ENE,67,3.0,7.0,81,0.02,,,-99.99,WeatherLink 5.7,2013-03-06 19:51:00,
2013-03-06 15:01:00,37.7,32.4,29.85,NE,45,2.0,6.0,81,0.02,,,-99.99,WeatherLink 5.7,2013-03-06 20:01:00,
2013-03-06 15:11:00,37.2,32.5,29.86,ENE,67,2.0,6.0,83,0.02,,,-99.99,WeatherLink 5.7,2013-03-06 20:11:00,
2013-03-06 15:21:00,37.3,32.6,29.85,ENE,67,2.0,6.0,83,0.01,,,-99.99,WeatherLink 5.7,2013-03-06 20:21:00,
2013-03-06 15:31:00,37.4,32.1,29.85,ENE,67,3.0,8.0,81,0.01,,,-99.99,WeatherLink 5.7,2013-03-06 20:31:00,
2013-03-06 15:41:00,37.6,31.4,29.85,ENE,67,4.0,9.0,78,0.01,,,-99.99,WeatherLink 5.7,2013-03-06 20:41:00,
2013-03-06 15:51:00,37.8,31.6,29.86,NE,45,3.0,11.0,78,0.01,,,-99.99,WeatherLink 5.7,2013-03-06 20:51:00,
2013-03-06 16:01:00,37.6,31.4,29.87,ENE,67,2.0,8.0,78,0.00,,,-99.99,WeatherLink 5.7,2013-03-06 21:01:00,
2013-03-06 16:11:00,37.3,30.4,29.87,ENE,67,2.0,7.0,76,0.00,,,-99.99,WeatherLink 5.7,2013-03-06 21:11:00,
2013-03-06 16:21:00,37.3,30.1,29.88,ENE,67,2.0,6.0,75,0.00,,,-99.99,WeatherLink 5.7,2013-03-06 21:21:00,
2013-03-06 16:31:00,37.3,29.1,29.87,ENE,67,3.0,8.0,72,0.00,,,-99.99,WeatherLink 5.7,2013-03-06 21:31:00,
2013-03-06 16:41:00,37.3,28.8,29.88,East,90,2.0,6.0,71,0.00,,,-99.99,WeatherLink 5.7,2013-03-06 21:41:00,
2013-03-06 16:51:00,37.4,28.2,29.88,ENE,67,2.0,6.0,69,0.00,,,-99.99,WeatherLink 5.7,2013-03-06 21:51:00,
2013-03-06 17:01:00,37.4,28.2,29.89,ENE,67,2.0,10.0,69,0.00,,,-99.99,WeatherLink 5.7,2013-03-06 22:01:00,
2013-03-06 17:11:00,37.4,28.2,29.89,NNE,22,2.0,9.0,69,0.00,,,-99.99,WeatherLink 5.7,2013-03-06 22:11:00,
2013-03-06 17:21:00,37.4,27.8,29.90,NE,45,2.0,7.0,68,0.00,,,-99.99,WeatherLink 5.7,2013-03-06 22:21:00,
2013-03-06 17:31:00,37.5,27.5,29.90,NNE,22,2.0,9.0,67,0.00,,,-99.99,WeatherLink 5.7,2013-03-06 22:31:00,
2013-03-06 17:41:00,37.4,27.1,29.90,East,90,3.0,9.0,66,0.00,,,-99.99,WeatherLink 5.7,2013-03-06 22:41:00,
2013-03-06 17:51:00,37.5,27.2,29.90,North,0,3.0,9.0,66,0.00,,,-99.99,WeatherLink 5.7,2013-03-06 22:51:00,
2013-03-06 18:01:00,37.4,27.1,29.89,North,0,3.0,13.0,66,0.00,,,-99.99,WeatherLink 5.7,2013-03-06 23:01:00,
2013-03-06 18:11:00,37.4,27.4,29.89,NE,45,3.0,14.0,67,0.00,,,-99.99,WeatherLink 5.7,2013-03-06 23:11:00,
2013-03-06 18:21:00,37.4,27.4,29.90,NNE,22,2.0,7.0,67,0.00,,,-99.99,WeatherLink 5.7,2013-03-06 23:21:00,
2013-03-06 18:31:00,37.4,27.8,29.90,NNE,22,3.0,8.0,68,0.00,,,-99.99,WeatherLink 5.7,2013-03-06 23:31:00,
2013-03-06 18:41:00,37.3,27.3,29.91,NE,45,4.0,16.0,67,0.00,,,-99.99,WeatherLink 5.7,2013-03-06 23:41:00,
2013-03-06 18:51:00,37.3,27.3,29.92,North,0,4.0,18.0,67,0.00,,,-99.99,WeatherLink 5.7,2013-03-06 23:51:00,
2013-03-06 19:01:00,37.3,27.3,29.92,NE,45,3.0,10.0,67,0.00,,,-99.99,WeatherLink 5.7,2013-03-07 00:01:00,
2013-03-06 19:11:00,37.2,27.2,29.92,NNE,22,3.0,10.0,67,0.00,,,-99.99,WeatherLink 5.7,2013-03-07 00:11:00,
2013-03-06 19:21:00,37.1,27.5,29.92,NE,45,4.0,12.0,68,0.00,,,-99.99,WeatherLink 5.7,2013-03-07 00:21:00,
2013-03-06 19:31:00,37.0,27.1,29.92,NE,45,3.0,13.0,67,0.00,,,-99.99,WeatherLink 5.7,2013-03-07 00:31:00,
2013-03-06 19:41:00,36.9,26.6,29.92,ENE,67,4.0,11.0,66,0.00,,,-99.99,WeatherLink 5.7,2013-03-07 00:41:00,
2013-03-06 19:51:00,36.9,27.0,29.93,ENE,67,3.0,9.0,67,0.00,,,-99.99,WeatherLink 5.7,2013-03-07 00:51:00,
2013-03-06 20:01:00,36.8,26.5,29.93,ENE,67,4.0,11.0,66,0.00,,,-99.99,WeatherLink 5.7,2013-03-07 01:01:00,
2013-03-06 20:11:00,36.7,26.4,29.93,ENE,67,3.0,11.0,66,0.00,,,-99.99,WeatherLink 5.7,2013-03-07 01:11:00,
2013-03-06 20:21:00,36.7,26.0,29.93,ENE,67,3.0,9.0,65,0.00,,,-99.99,WeatherLink 5.7,2013-03-07 01:21:00,
2013-03-06 20:31:00,36.6,25.9,29.93,ENE,67,4.0,14.0,65,0.00,,,-99.99,WeatherLink 5.7,2013-03-07 01:31:00,
2013-03-06 20:41:00,36.6,25.9,29.94,NE,45,3.0,11.0,65,0.00,,,-99.99,WeatherLink 5.7,2013-03-07 01:41:00,
2013-03-06 20:51:00,36.5,26.2,29.93,ENE,67,3.0,8.0,66,0.00,,,-99.99,WeatherLink 5.7,2013-03-07 01:51:00,
2013-03-06 21:01:00,36.3,26.0,29.94,NNE,22,3.0,9.0,66,0.00,,,-99.99,WeatherLink 5.7,2013-03-07 02:01:00,
2013-03-06 21:11:00,36.2,26.3,29.95,ENE,67,3.0,13.0,67,0.00,,,-99.99,WeatherLink 5.7,2013-03-07 02:11:00,
2013-03-06 21:21:00,36.0,26.1,29.94,NE,45,4.0,17.0,67,0.00,,,-99.99,WeatherLink 5.7,2013-03-07 02:21:00,
2013-03-06 21:31:00,35.7,26.5,29.94,ENE,67,3.0,8.0,69,0.00,,,-99.99,WeatherLink 5.7,2013-03-07 02:31:00,
2013-03-06 21:41:00,35.3,26.5,29.94,NE,45,3.0,10.0,70,0.00,,,-99.99,WeatherLink 5.7,2013-03-07 02:41:00,
2013-03-06 21:51:00,35.1,25.9,29.94,NNE,22,2.0,7.0,69,0.00,,,-99.99,WeatherLink 5.7,2013-03-07 02:51:00,
2013-03-06 22:01:00,35.1,25.9,29.94,NNE,22,2.0,9.0,69,0.00,,,-99.99,WeatherLink 5.7,2013-03-07 03:01:00,
2013-03-06 22:11:00,35.1,25.6,29.94,NE,45,4.0,10.0,68,0.00,,,-99.99,WeatherLink 5.7,2013-03-07 03:11:00,
2013-03-06 22:21:00,35.1,25.6,29.94,ENE,67,3.0,9.0,68,0.00,,,-99.99,WeatherLink 5.7,2013-03-07 03:21:00,
2013-03-06 22:31:00,35.0,25.5,29.94,ENE,67,2.0,12.0,68,0.00,,,-99.99,WeatherLink 5.7,2013-03-07 03:31:00,
2013-03-06 22:41:00,35.0,24.8,29.94,NW,315,3.0,8.0,66,0.00,,,-99.99,WeatherLink 5.7,2013-03-07 03:41:00,
2013-03-06 22:51:00,35.1,24.9,29.94,NE,45,3.0,11.0,66,0.00,,,-99.99,WeatherLink 5.7,2013-03-07 03:51:00,
2013-03-06 23:01:00,35.1,24.5,29.94,North,0,4.0,13.0,65,0.00,,,-99.99,WeatherLink 5.7,2013-03-07 04:01:00,
2013-03-06 23:11:00,35.0,24.4,29.95,NNE,22,3.0,10.0,65,0.00,,,-99.99,WeatherLink 5.7,2013-03-07 04:11:00,
2013-03-06 23:21:00,34.9,24.7,29.94,North,0,2.0,10.0,66,0.00,,,-99.99,WeatherLink 5.7,2013-03-07 04:21:00,
2013-03-06 23:31:00,34.8,24.6,29.94,North,0,2.0,9.0,66,0.00,,,-99.99,WeatherLink 5.7,2013-03-07 04:31:00,
2013-03-06 23:41:00,34.7,24.5,29.94,North,0,3.0,10.0,66,0.00,,,-99.99,WeatherLink 5.7,2013-03-07 04:41:00,
2013-03-06 23:51:00,34.6,24.4,29.94,ENE,67,2.0,8.0,66,0.00,,,-99.99,WeatherLink 5.7,2013-03-07 04:51:00,